Location: Unspecified
(0.0000°N, 0.0000°E)
Time: 05:37:01
(UTC+00:00)

LilacSat-2 - Pass Details

Date: 11 December 2017
Orbit: 515 x 537 km, 97.5° (Epoch: 17 January)

Event Time Altitude Azimuth Distance (km) Brightness Sun altitude
Rises 04:54:54 0° 40° (NE) 2,670 ? -13.4°
Reaches altitude 10° 04:57:38 10° 61° (ENE) 1,780 ? -12.8°
Maximum altitude 05:00:06 16° 101° (ESE) 1,417 ? -12.2°
Drops below altitude 10° 05:02:34 10° 141° (SE) 1,780 ? -11.6°
Sets 05:05:17 0° 163° (SSE) 2,668 ? -11.0°
